EW5770 Weather Reports


Display with metric or nautical units.
time (UTC)temp
F
wind
direction
speed
MPH
gust
MPH
rain 1hr
in
rain 24hr
in
rain mn
in
humidity
%
barometer
mb
20260905101218 80 235 0.0 1.0 0.00 0.00 0.00 75 1018.2
20260905100220 80 223 0.0 1.0 0.00 0.00 0.00 76 1018.2
20260905095217 80 0 0.0 0.0 0.00 0.00 0.00 75 1018.2
20260905094219 80 0 0.0 0.0 0.00 0.00 0.00 75 1018.4
20260905093217 80 238 0.0 1.0 0.00 0.00 0.00 73 1018.2
20260905092218 80 0 0.0 0.0 0.00 0.00 0.00 74 1018.2
20260905091222 81 0 0.0 0.0 0.00 0.00 0.00 70 1018.1
20260905090220 80 0 0.0 0.0 0.00 0.00 0.00 70 1018.2
20260905085219 78 0 0.0 0.0 0.00 0.00 0.00 72 1018.3
20260905084223 77 0 0.0 0.0 0.00 0.00 0.00 72 1018.1
20260905083223 77 0 0.0 0.0 0.00 0.00 0.00 72 1018.1
20260905082219 76 0 0.0 0.0 0.00 0.00 0.00 73 1018.0
20260905081221 75 0 0.0 0.0 0.00 0.00 0.00 74 1018.0
20260905080221 74 0 0.0 0.0 0.00 0.00 0.00 75 1017.9
20260905072218 73 0 0.0 0.0 0.00 0.00 0.00 78 1018.0
20260905071222 72 0 0.0 0.0 0.00 0.00 0.00 76 1017.9
20260905070220 72 0 0.0 0.0 0.00 0.00 0.00 76 1017.9
20260905065222 72 0 0.0 0.0 0.00 0.00 0.00 76 1017.8
20260905064224 71 0 0.0 0.0 0.00 0.00 0.00 80 1017.8
20260905063225 71 0 0.0 0.0 0.00 0.00 0.00 80 1017.8
20260905062219 71 0 0.0 0.0 0.00 0.00 0.00 81 1017.8
20260905060224 71 0 0.0 0.0 0.00 0.00 0.00 76 1017.7
20260905055222 70 0 0.0 0.0 0.00 0.00 0.00 78 1017.5
20260905054224 70 0 0.0 0.0 0.00 0.00 0.00 80 1017.4
20260905053222 70 0 0.0 0.0 0.00 0.00 0.00 79 1017.5
20260905051221 70 0 0.0 0.0 0.00 0.00 0.00 75 1017.4
20260905050225 69 0 0.0 0.0 0.00 0.00 0.00 75 1017.2
20260905045222 69 0 0.0 0.0 0.00 0.00 0.00 75 1017.2
20260905044224 69 0 0.0 0.0 0.00 0.00 0.00 78 1017.3
20260905043223 69 0 0.0 0.0 0.00 0.00 0.00 75 1017.3
20260905042219 69 0 0.0 0.0 0.00 0.00 0.00 75 1017.1
20260905041222 69 0 0.0 0.0 0.00 0.00 0.00 76 1017.1
20260905040224 68 0 0.0 0.0 0.00 0.00 0.00 76 1017.4
20260905035225 68 0 0.0 0.0 0.00 0.00 0.00 77 1017.3
20260905034217 68 0 0.0 0.0 0.00 0.00 0.00 77 1017.3
20260905033223 68 0 0.0 0.0 0.00 0.00 0.00 74 1017.4
20260905031217 68 0 0.0 0.0 0.00 0.00 0.00 77 1017.5
20260905030218 68 0 0.0 0.0 0.00 0.00 0.00 76 1017.4
20260905025219 68 0 0.0 0.0 0.00 0.00 0.00 77 1017.5
20260905023226 68 0 0.0 0.0 0.00 0.00 0.00 77 1017.5
20260905022224 68 0 0.0 0.0 0.00 0.00 0.00 75 1017.6
20260905021221 68 0 0.0 0.0 0.00 0.00 0.00 74 1017.7
20260905020222 68 0 0.0 0.0 0.00 0.00 0.00 74 1017.7
20260905015225 68 0 0.0 0.0 0.00 0.00 0.00 77 1017.8
20260905014224 68 0 0.0 0.0 0.00 0.00 0.00 79 1017.8
20260905013222 68 0 0.0 0.0 0.00 0.00 0.00 74 1017.8
20260905012220 68 0 0.0 0.0 0.00 0.00 0.00 75 1017.8
20260905011222 67 0 0.0 0.0 0.00 0.00 0.00 78 1017.8
20260905010220 67 0 0.0 0.0 0.00 0.00 0.00 80 1017.8
20260905005223 68 0 0.0 0.0 0.00 0.00 0.00 83 1017.8
20260905003219 68 0 0.0 0.0 0.00 0.00 0.00 73 1017.6
20260905001222 68 0 0.0 0.0 0.00 0.00 0.00 76 1018.1
20260905000218 69 0 0.0 0.0 0.00 0.00 0.00 72 1018.0
20260904235224 69 0 0.0 0.0 0.00 0.00 0.00 75 1018.1
20260904234224 69 0 0.0 0.0 0.00 0.00 0.00 76 1018.3
20260904233222 68 0 0.0 0.0 0.00 0.00 0.00 80 1018.2
20260904232218 69 0 0.0 0.0 0.00 0.00 0.00 80 1018.3
20260904230226 69 0 0.0 0.0 0.00 0.00 0.00 74 1018.1
20260904225224 69 0 0.0 0.0 0.00 0.00 0.00 75 1018.2
20260904224225 69 0 0.0 0.0 0.00 0.00 0.00 80 1018.3
20260904222220 69 0 0.0 0.0 0.00 0.00 0.00 79 1018.3
20260904221222 70 0 0.0 0.0 0.00 0.00 0.00 75 1018.1
20260904220226 70 0 0.0 0.0 0.00 0.00 0.00 71 1018.2
20260904215226 70 0 0.0 0.0 0.00 0.00 0.00 74 1018.2
20260904214225 70 0 0.0 0.0 0.00 0.00 0.00 74 1018.3
20260904212217 71 0 0.0 0.0 0.00 0.00 0.00 75 1018.4
20260904211222 71 0 0.0 0.0 0.00 0.00 0.00 79 1018.4
20260904210223 71 0 0.0 0.0 0.00 0.00 0.00 79 1018.4
20260904205226 71 0 0.0 0.0 0.00 0.00 0.00 78 1018.4
20260904204225 72 0 0.0 0.0 0.00 0.00 0.00 73 1018.4
20260904203217 72 0 0.0 0.0 0.00 0.00 0.00 72 1018.3
20260904202221 72 0 0.0 0.0 0.00 0.00 0.00 73 1018.4
20260904201225 84 240 3.0 1.0 0.00 0.00 0.00 64 1018.3
20260904200224 84 240 3.0 1.0 0.00 0.00 0.00 64 1018.3
20260904195224 84 240 3.0 1.0 0.00 0.00 0.00 64 1018.3
20260904194227 84 240 3.0 1.0 0.00 0.00 0.00 64 1018.3
20260904193224 84 240 3.0 1.0 0.00 0.00 0.00 64 1018.3
20260904192224 84 240 3.0 1.0 0.00 0.00 0.00 64 1018.3
20260904191227 84 240 3.0 1.0 0.00 0.00 0.00 64 1018.3
20260904190225 84 240 3.0 1.0 0.00 0.00 0.00 64 1018.3
20260904185227 84 240 3.0 1.0 0.00 0.00 0.00 64 1018.3
20260904183225 84 240 3.0 1.0 0.00 0.00 0.00 64 1018.3
20260904182218 84 240 3.0 1.0 0.00 0.00 0.00 64 1018.3
20260904180226 84 240 3.0 1.0 0.00 0.00 0.00 64 1018.3
20260904175219 84 240 3.0 1.0 0.00 0.00 0.00 64 1018.3
20260904174225 84 240 3.0 1.0 0.00 0.00 0.00 64 1018.3
20260904173226 84 240 3.0 1.0 0.00 0.00 0.00 64 1018.3
20260904172219 84 240 3.0 1.0 0.00 0.00 0.00 64 1018.3
20260904171226 84 240 3.0 1.0 0.00 0.00 0.00 64 1018.3
20260904170227 84 240 3.0 1.0 0.00 0.00 0.00 64 1018.3
20260904165225 84 240 3.0 1.0 0.00 0.00 0.00 64 1018.3
20260904164225 84 240 3.0 1.0 0.00 0.00 0.00 64 1018.3
20260904163227 84 240 3.0 1.0 0.00 0.00 0.00 64 1018.3
20260904161225 84 240 3.0 1.0 0.00 0.00 0.00 64 1018.3
20260904160227 84 240 3.0 1.0 0.00 0.00 0.00 64 1018.3
20260904155225 84 240 3.0 1.0 0.00 0.00 0.00 64 1018.3
20260904154225 84 240 3.0 1.0 0.00 0.00 0.00 64 1018.3
20260904153226 84 240 3.0 1.0 0.00 0.00 0.00 64 1018.3
20260904152218 84 240 3.0 1.0 0.00 0.00 0.00 64 1018.3
20260904151227 84 240 3.0 1.0 0.00 0.00 0.00 64 1018.3
20260904150227 84 240 3.0 1.0 0.00 0.00 0.00 64 1018.3
20260904145227 84 240 3.0 1.0 0.00 0.00 0.00 64 1018.3
20260904144225 84 240 3.0 1.0 0.00 0.00 0.00 64 1018.3
20260904142218 84 240 3.0 1.0 0.00 0.00 0.00 64 1018.3
20260904141219 84 240 3.0 1.0 0.00 0.00 0.00 64 1018.3
20260904140221 84 240 3.0 1.0 0.00 0.00 0.00 64 1018.3
20260904135221 84 238 4.0 14.0 0.00 0.00 0.00 64 1018.3
20260904134227 84 232 1.0 1.0 0.00 0.00 0.00 64 1018.2
20260904133219 85 221 0.0 2.0 0.00 0.00 0.00 64 1018.1
20260904132218 84 0 2.0 0.0 0.00 0.00 0.00 67 1018.2
20260904131226 85 225 0.0 1.0 0.00 0.00 0.00 67 1018.3
20260904130218 84 227 0.0 1.0 0.00 0.00 0.00 68 1018.3
20260904125225 84 236 0.0 1.0 0.00 0.00 0.00 68 1018.4
20260904124221 84 183 1.0 1.0 0.00 0.00 0.00 68 1018.4
20260904123221 84 238 0.0 5.0 0.00 0.00 0.00 69 1018.6
20260904122218 84 216 0.0 6.0 0.00 0.00 0.00 68 1018.7
20260904121218 84 248 1.0 1.0 0.00 0.00 0.00 68 1018.7
20260904120219 84 245 0.0 1.0 0.00 0.00 0.00 69 1018.7
20260904115219 84 230 0.0 1.0 0.00 0.00 0.00 70 1018.7
20260904114219 83 231 0.0 1.0 0.00 0.00 0.00 71 1018.7
20260904113218 84 182 1.0 1.0 0.00 0.00 0.00 70 1018.8
20260904112218 85 231 0.0 1.0 0.00 0.00 0.00 69 1018.8
20260904111219 83 228 0.0 1.0 0.00 0.00 0.00 71 1018.9
20260904105219 84 199 0.0 1.0 0.00 0.00 0.00 69 1018.9
20260904104227 84 214 0.0 1.0 0.00 0.00 0.00 68 1018.9
20260904103219 84 231 0.0 1.0 0.00 0.00 0.00 66 1018.9
20260904102218 84 249 0.0 4.0 0.00 0.00 0.00 65 1018.9